Location: Boncourt
(49.6160°N, 3.9448°E)
Time: 05:25:15
(UTC+00:00)

Cosmos 2219 Rocket - Pass Details

Date: 09 February 2023
Orbit: 826 x 848 km, 71.0° (Epoch: 29 March)

Event Time Altitude Azimuth Distance (km) Brightness Sun altitude
Rises 18:08:19 0° 204° (SSW) 3,353 5.8 -12.6°
Reaches altitude 10° 18:10:44 10° 203° (SSW) 2,426 5.0 -13.0°
Maximum altitude 18:16:18 83° 116° (ESE) 842 2.1 -13.9°
Drops below altitude 10° 18:21:56 10° 30° (NNE) 2,453 4.3 -14.8°
Enters shadow 18:23:21 - 30° (NNE) 2,996 4.7 -15.1°
